Simultaneous Nadir Overpasses (SNOs) Predictions

Prediction of SNOs between GOES-16 and NPP Satellite Orbit:

Table of predicted SNOs for the next 14.0 days since TLE Epoch: 12/7/2018
Index Date Time (GOES-16) GOES-16 Lat,Lon NPP Lat,Lon Distance(km) Time Diff (sec)
1 12/08/2018 18:33:19 -0.01, -75.18 -0.47, -77.32 243.26 80
2 12/09/2018 18:14:34 -0.02, -75.19 0.50, -72.78 273.82 80
3 12/11/2018 06:39:02 0.02, -75.20 0.63, -78.06 325.52 80
4 12/12/2018 06:17:37 0.02, -75.21 -0.34, -73.52 191.86 80
5 12/13/2018 18:42:13 -0.02, -75.23 -0.85, -78.83 410.92 80
6 12/14/2018 18:20:49 -0.02, -75.24 0.18, -74.30 106.82 80
7 12/16/2018 06:45:16 0.03, -75.26 1.01, -79.57 491.32 80
8 12/17/2018 06:23:51 0.03, -75.28 -0.02, -75.04 26.70 80
9 12/19/2018 18:29:43 -0.03, -75.32 -0.12, -75.82 56.86 80
10 12/20/2018 18:08:18 -0.03, -75.34 0.85, -71.28 461.45 80




NCC Satellite Simultaneous Nadir Overpasses (SNOs) Prediction Service
